Theta_e
338 341 342 346 349 349 350 350 349 349 350 350 349 349 350 350 350 349 349 349 348 347 347 347 345 344 344 345 344 343 343 342 346 348 349 348 348 346 345 344 343 341 341 342 341 342 342 341 343 343 342 342 342 342 341 340 339 339 338 339 339 339 340 340 339 339 339 340 343 344 344 345 345 345 345 346 346 345 343 342 342 338 338 341 345
337 342 341 342 350 349 349 349 349 350 349 350 350 350 349 350 350 349 349 349 348 347 347 347 346 345 344 344 344 343 343 342 343 348 348 347 347 346 344 343 342 342 342 341 342 342 342 343 343 343 343 342 340 340 340 339 338 337 337 338 338 339 340 339 339 339 339 339 339 339 340 342 343 344 345 344 345 344 342 342 341 337 336 342 342
341 343 341 343 349 350 349 349 349 350 349 349 349 349 349 349 349 348 348 347 347 347 347 347 346 346 345 343 343 342 342 342 347 348 348 347 347 346 344 343 342 340 340 341 341 341 341 342 342 344 344 341 340 340 339 339 338 337 337 338 338 338 339 339 339 339 338 338 337 338 339 338 338 340 342 342 342 342 341 342 341 340 336 341 341
342 342 341 343 346 348 350 349 349 349 349 349 349 349 348 348 348 348 348 348 347 347 346 346 345 344 344 344 343 343 342 343 347 347 346 346 346 344 343 342 341 340 340 341 341 342 341 342 343 344 344 341 340 339 338 338 337 337 338 338 338 338 338 338 338 337 337 337 335 335 333 330 333 337 339 340 340 340 339 339 339 339 340 339 340
343 342 340 341 342 346 350 349 349 349 349 348 348 348 347 347 348 347 347 348 347 346 345 345 345 344 344 344 343 342 341 341 346 346 346 346 346 344 342 341 340 340 339 340 341 341 340 342 343 343 342 341 339 338 338 337 337 336 337 337 338 338 338 338 337 337 336 335 334 331 325 328 331 336 337 339 338 338 339 339 339 339 340 340 340
342 342 340 339 340 345 348 349 349 349 349 349 349 348 347 347 347 347 347 347 346 346 346 346 345 345 344 343 343 343 345 346 346 346 346 346 345 344 343 342 341 341 340 340 340 340 341 341 342 342 342 340 338 339 338 338 337 336 337 338 339 339 339 338 337 336 334 333 332 327 327 329 330 333 339 338 340 340 340 340 341 341 340 341 341
342 343 342 339 340 343 346 349 350 349 349 350 349 348 347 347 347 347 347 347 346 345 345 345 345 345 344 344 343 342 345 346 346 346 346 346 345 343 340 340 340 339 339 338 340 340 340 341 341 341 342 341 342 340 339 340 340 340 338 338 339 339 339 338 337 336 334 329 324 325 326 327 331 335 341 341 341 341 340 341 340 341 341 341 340
343 344 343 339 341 343 346 349 349 349 349 349 349 348 347 347 347 346 346 346 346 346 345 344 344 344 343 343 342 344 344 346 346 346 345 344 344 342 341 341 340 339 339 340 341 339 340 340 340 340 341 341 341 341 341 340 340 339 340 340 339 339 338 337 336 336 335 328 326 326 327 330 331 334 341 341 341 341 340 340 340 340 341 340 336
342 344 343 340 340 343 346 348 349 350 349 349 348 348 347 347 346 346 346 346 346 346 345 345 344 343 343 343 342 343 345 345 346 345 344 344 343 342 340 339 339 340 340 340 340 340 341 340 342 342 343 342 341 342 340 340 339 340 340 340 339 338 337 336 335 333 331 330 329 329 330 330 332 333 339 340 341 340 339 338 339 340 339 336 336
342 344 344 343 341 342 344 348 349 349 349 349 348 348 347 347 346 346 346 346 346 345 345 344 344 343 342 343 342 341 341 346 345 345 344 343 343 340 339 338 338 338 337 339 340 340 341 340 341 342 342 341 341 341 341 340 340 340 339 339 339 338 337 335 334 332 329 329 330 332 333 335 332 332 337 341 341 340 337 335 335 335 335 336 336
342 343 344 343 341 342 347 349 349 349 349 349 348 348 347 346 346 346 346 346 346 345 345 344 344 343 342 342 341 340 341 343 344 343 343 342 341 340 339 338 338 338 337 338 339 340 340 340 340 341 341 340 340 340 340 340 340 339 339 338 338 337 336 334 331 328 329 329 329 331 334 336 332 333 340 340 340 338 335 335 335 335 336 336 337
342 343 343 342 344 341 346 348 349 349 349 348 348 348 347 346 346 346 345 345 345 345 344 343 343 342 342 342 341 340 339 342 342 342 341 340 340 339 338 338 336 337 336 338 338 339 339 339 339 340 339 339 339 339 339 339 339 338 337 337 336 335 334 333 328 327 327 328 329 330 330 330 330 333 336 339 340 338 335 335 335 336 336 335 336
342 343 343 342 341 339 344 347 347 348 349 348 348 348 347 346 346 345 345 345 344 344 344 343 342 342 341 341 340 339 339 339 340 340 339 339 338 337 337 337 336 336 337 337 337 337 338 339 340 339 339 338 337 338 337 338 337 336 336 335 334 334 332 331 326 327 327 327 328 329 330 330 332 336 338 339 340 338 336 336 336 335 335 336 336
341 342 343 343 341 344 341 344 346 348 348 348 348 347 347 346 346 345 345 344 344 344 343 342 341 341 340 340 340 339 338 338 338 338 337 337 337 337 337 337 336 336 337 338 338 337 337 338 338 338 338 337 337 336 337 337 336 335 334 333 332 331 328 327 328 326 327 328 329 330 329 330 332 338 338 339 338 337 335 335 334 334 334 335 334
340 342 343 343 342 341 342 341 343 344 346 347 347 347 347 346 345 345 345 344 344 343 343 342 341 340 340 340 339 339 338 338 338 337 336 336 335 335 335 336 335 336 336 336 336 336 336 338 338 338 337 337 336 336 336 335 335 333 332 331 330 328 326 323 324 325 326 327 328 329 329 330 336 337 337 338 336 336 335 334 333 332 332 331 331
341 342 342 342 343 341 340 341 339 341 341 344 345 345 346 346 345 345 344 344 343 343 342 341 340 339 339 339 339 338 338 338 337 336 335 335 334 334 334 334 334 335 336 336 336 336 336 337 337 336 336 336 335 335 334 334 333 331 330 329 328 326 324 323 323 323 325 326 327 328 329 330 334 335 335 334 334 333 333 332 332 331 330 329 329
340 341 342 342 343 341 340 340 338 336 337 339 340 342 343 345 345 345 344 344 343 342 341 341 340 339 339 339 338 339 338 337 337 336 335 335 335 334 333 333 333 335 336 335 335 335 336 336 336 335 335 335 335 334 333 333 332 330 329 328 327 326 323 322 322 323 324 325 326 327 328 328 332 334 333 333 332 332 331 330 330 329 328 328 328
339 340 341 342 342 342 341 339 337 338 338 336 334 338 340 343 343 342 342 342 342 342 341 340 340 339 339 337 337 337 337 337 336 335 335 335 333 333 333 333 333 332 335 335 334 335 335 335 334 334 334 334 333 333 332 330 329 328 327 326 325 324 322 320 319 321 324 326 326 328 327 330 331 332 332 331 329 329 328 328 328 326 326 326 326
338 339 340 341 342 342 342 340 337 337 337 336 336 337 336 338 339 339 339 340 340 339 338 338 336 336 335 334 333 332 332 333 333 333 334 333 332 330 332 332 332 332 333 333 333 334 334 333 334 333 333 332 332 331 330 328 327 325 325 323 322 320 319 319 318 319 320 322 324 326 328 331 331 330 330 330 330 329 328 327 326 325 325 325 324
337 338 339 340 341 341 341 340 339 337 335 335 336 336 334 333 336 337 337 337 336 336 335 334 330 328 327 327 326 326 326 325 325 327 328 330 328 326 329 331 330 331 332 332 332 332 333 333 332 332 331 330 329 328 327 326 325 324 322 321 318 317 316 316 317 318 320 322 324 326 331 331 333 334 331 329 328 327 326 325 325 325 324 324 324
336 337 338 339 340 340 338 339 339 337 334 335 336 336 335 332 332 332 332 332 332 332 331 326 322 321 321 321 322 323 322 322 322 322 321 322 321 323 327 330 330 331 331 330 331 331 331 330 329 329 327 325 321 321 321 323 322 321 319 317 315 314 314 315 317 318 321 322 325 327 331 330 331 333 333 331 329 328 326 325 324 323 323 323 322
333 334 336 338 338 339 338 339 338 337 336 338 339 338 335 334 334 333 332 329 327 325 325 325 325 322 321 322 322 321 321 320 320 323 320 321 321 321 323 327 330 330 329 329 329 328 328 328 327 325 323 320 316 311 312 315 317 317 315 313 311 311 312 313 315 317 320 323 326 328 330 331 331 332 331 328 327 325 323 323 324 324 323 322 321
332 333 334 336 337 338 338 338 338 337 337 338 339 338 336 336 335 335 331 327 325 324 323 323 322 322 321 320 320 320 320 319 319 320 320 319 321 321 323 326 328 327 327 326 326 326 325 325 323 321 318 315 309 308 308 308 308 311 310 309 308 309 310 312 313 316 319 322 325 328 329 331 331 330 330 329 327 325 324 323 323 322 322 322 322
334 334 334 336 337 336 337 338 338 337 337 337 338 337 337 337 336 335 332 327 324 323 322 321 321 320 320 320 319 319 319 318 320 320 320 319 320 317 316 316 317 318 318 319 322 322 322 320 318 315 312 308 307 306 307 306 306 307 307 307 307 307 308 309 310 313 317 322 325 327 329 330 330 330 330 328 327 324 322 320 321 321 323 322 320
335 335 334 334 336 336 337 337 338 337 337 337 336 336 338 337 337 335 332 329 325 322 320 320 320 319 319 319 319 318 318 317 316 316 316 316 314 311 309 307 306 306 309 306 306 307 307 305 306 307 305 306 306 305 306 306 305 306 306 306 306 306 306 307 309 311 314 321 323 326 327 329 330 330 329 327 326 324 322 321 321 321 321 321 320
334 334 334 334 335 336 336 337 338 337 337 337 336 336 337 337 336 335 332 330 327 323 320 319 319 319 319 319 318 317 316 315 315 314 313 313 311 307 305 304 303 303 304 303 303 304 304 304 304 304 303 303 303 303 304 305 304 304 304 305 305 305 305 305 306 308 310 316 322 324 326 328 328 329 328 328 326 324 323 322 322 321 320 319 319
333 334 335 335 336 336 336 337 337 337 337 338 337 336 337 337 336 335 333 330 328 324 320 319 319 319 318 318 318 317 315 314 313 312 311 310 308 305 304 303 301 301 302 303 302 302 303 303 303 302 302 303 303 303 304 303 303 304 304 304 304 304 304 304 303 304 306 311 318 322 325 326 327 326 325 324 323 322 322 320 320 319 319 319 318
331 333 334 335 334 336 337 336 336 336 336 337 337 336 337 337 336 333 333 330 328 325 322 320 320 319 318 318 318 317 316 314 312 311 310 308 306 305 304 301 300 300 301 302 301 301 302 302 302 302 302 303 303 303 303 303 303 304 303 303 303 303 303 302 301 302 303 307 314 319 323 325 325 325 325 323 323 322 321 321 321 320 319 318 318
329 332 333 334 335 336 336 336 337 336 337 337 336 336 337 336 335 334 334 329 330 327 324 322 321 320 318 318 317 317 315 314 312 310 308 307 305 304 302 300 299 299 300 300 301 301 301 301 302 301 301 302 302 302 301 301 301 302 302 302 302 302 301 300 299 300 301 302 305 314 320 323 324 323 323 322 322 320 320 320 320 319 318 318 316
328 331 332 333 335 336 336 336 337 337 337 337 336 336 337 336 335 334 335 331 332 330 325 322 323 321 318 318 318 317 315 314 311 309 308 306 304 304 302 299 299 298 299 300 299 301 300 300 300 300 301 301 301 300 300 299 299 299 300 300 300 299 298 297 297 298 298 300 302 306 316 319 321 321 320 319 319 319 320 319 319 318 318 318 317
324 327 331 333 333 334 336 336 337 336 337 336 336 336 336 336 334 335 335 333 333 332 326 323 324 322 318 318 317 316 316 314 311 309 307 305 304 304 300 299 298 298 299 299 299 300 300 300 300 300 300 300 299 299 300 298 298 298 298 298 298 298 297 296 296 296 297 297 299 301 306 314 320 321 321 320 320 320 320 320 320 319 318 317 317
321 323 328 332 332 333 335 336 337 337 336 336 335 336 336 336 334 334 334 334 334 332 330 324 323 325 320 318 317 316 315 313 311 309 307 305 305 304 300 299 298 297 298 298 298 298 299 299 299 299 298 299 299 298 298 297 295 295 296 296 296 296 295 295 295 295 295 295 296 297 299 303 309 316 319 319 320 319 319 319 319 319 318 316 317
322 323 324 327 330 331 333 335 337 336 336 336 336 336 336 336 334 334 334 333 334 333 332 327 324 327 322 319 318 316 315 313 311 309 307 305 306 304 300 299 298 297 297 297 297 297 297 297 297 297 297 297 297 296 296 295 294 293 293 293 294 293 293 293 293 293 293 293 294 295 296 297 298 304 308 313 317 315 316 316 316 317 316 316 316
320 320 321 323 328 330 332 334 335 335 335 337 336 336 336 336 335 334 333 333 334 334 332 331 326 327 325 321 319 317 316 315 313 310 308 306 306 303 300 299 297 297 297 297 297 297 297 297 296 296 297 296 296 295 295 294 293 293 292 292 292 291 292 291 290 290 291 291 291 292 293 294 295 295 297 304 311 316 315 315 315 315 315 315 314
318 318 320 322 324 327 330 332 331 334 333 335 335 335 335 336 335 334 333 333 333 333 333 333 330 327 328 324 321 319 318 316 314 311 309 308 308 304 301 299 297 297 297 297 297 297 297 296 296 296 296 296 295 294 294 293 293 291 291 291 291 291 291 290 289 289 289 289 290 290 291 291 292 292 293 294 301 308 314 313 313 313 314 314 314
318 320 320 320 322 325 326 329 329 332 333 334 335 334 334 335 335 329 334 333 332 333 333 333 332 329 329 327 324 320 319 318 315 312 309 308 309 306 302 299 297 297 297 297 297 296 296 296 297 297 295 294 293 292 292 292 291 290 290 290 290 290 290 289 288 288 288 289 289 288 288 289 289 291 292 290 292 299 309 312 313 312 313 313 313
319 319 320 320 320 322 324 326 327 329 331 332 333 332 332 333 334 334 334 333 332 332 333 333 333 331 329 329 326 322 320 320 316 314 310 309 309 308 303 299 298 298 297 297 297 297 297 297 295 296 296 294 293 291 291 291 289 289 289 289 289 289 289 288 287 287 288 287 286 286 287 286 289 290 286 287 288 290 299 307 310 310 313 312 311
317 319 320 320 321 321 323 325 326 327 330 330 330 330 330 331 332 333 331 333 333 333 333 333 332 332 331 330 328 324 321 321 318 315 312 310 310 308 304 300 299 299 298 298 298 298 298 297 296 295 295 294 292 291 290 290 290 289 289 288 288 288 288 288 289 289 286 285 285 285 284 284 285 284 285 285 286 287 288 294 300 302 303 309 311
316 318 319 320 320 320 321 321 323 325 326 327 327 326 326 327 329 331 331 331 332 332 332 332 332 332 331 330 329 326 321 323 320 317 314 311 310 309 304 301 300 299 298 297 297 297 298 298 296 294 294 293 293 292 290 290 289 289 287 287 288 287 287 288 286 285 285 284 286 286 285 284 283 283 284 284 284 285 286 287 287 288 291 304 307
313 316 317 318 318 319 319 320 321 324 324 324 323 322 322 323 324 325 327 328 330 328 330 331 331 331 330 330 330 329 324 323 321 318 317 313 311 309 305 301 300 299 298 297 296 297 296 296 295 294 292 291 292 291 290 289 288 288 288 287 287 287 287 285 285 285 285 284 284 284 283 282 283 282 282 282 283 283 284 285 286 285 286 293 300
310 313 315 316 318 319 318 318 320 321 322 322 321 322 321 321 321 324 325 327 327 328 328 329 330 331 330 330 330 330 328 324 322 320 318 314 313 310 306 302 301 300 299 298 298 298 297 297 295 294 292 290 289 290 290 289 287 286 286 285 285 286 288 285 283 284 284 283 283 283 283 282 281 281 281 281 281 282 282 283 283 283 284 284 287
309 313 314 316 317 318 318 319 318 319 322 322 322 321 323 324 323 324 325 325 325 324 326 327 328 328 328 329 329 329 329 326 323 321 319 317 314 310 306 303 302 301 300 299 298 298 297 295 294 292 293 292 289 289 289 289 287 286 284 283 283 283 286 284 284 283 283 283 283 282 282 281 281 281 281 280 280 280 281 281 281 283 283 283 284
309 312 314 314 314 315 317 317 317 318 320 321 321 321 320 317 319 315 323 319 319 322 323 321 321 324 325 327 328 329 328 326 324 321 320 318 315 311 307 304 302 301 299 299 299 297 296 295 294 293 291 292 290 290 289 293 288 286 286 283 280 280 285 285 283 283 283 282 282 282 282 281 281 280 280 280 280 280 281 281 281 281 282 282 282
307 309 311 314 315 315 315 316 316 316 318 318 317 318 316 309 307 307 311 319 317 315 317 315 317 319 322 322 324 327 328 327 326 322 320 318 316 312 309 305 303 302 301 299 297 296 296 295 294 294 292 289 288 288 290 290 288 287 284 283 280 280 279 281 281 281 281 281 281 281 282 281 280 280 280 280 280 280 280 280 280 280 281 281 281
307 309 311 313 315 315 315 316 315 315 316 314 315 312 309 306 304 305 307 308 311 315 315 315 315 315 317 319 322 321 324 326 326 324 320 319 316 313 310 307 304 302 301 300 298 298 296 295 295 294 293 291 288 288 289 290 289 294 288 281 278 279 280 279 280 280 281 281 281 281 282 281 280 281 280 279 279 279 279 280 279 280 280 281 281
306 308 311 313 312 312 312 312 312 312 313 312 312 311 312 311 309 310 310 308 312 312 313 316 314 314 316 315 315 319 321 323 325 324 322 319 317 314 311 307 305 304 302 301 300 298 296 295 295 294 293 293 291 288 287 290 289 290 288 290 283 282 280 279 281 278 282 282 281 281 281 281 280 281 280 279 280 280 281 280 279 280 280 279 280
306 305 305 308 309 309 310 311 311 311 310 309 310 310 311 311 312 314 315 314 315 314 312 315 318 316 316 315 317 316 318 321 321 323 322 319 318 315 311 308 306 304 302 301 300 298 297 296 295 295 294 294 292 289 289 289 289 288 288 287 289 286 284 282 280 279 278 280 280 281 281 280 280 280 280 280 280 279 280 280 280 280 279 279 279
302 302 304 305 308 308 309 309 309 308 308 308 308 311 312 310 310 311 312 313 313 313 309 310 312 314 315 315 314 315 315 316 318 320 321 320 318 316 313 310 307 305 303 302 301 300 298 297 295 295 295 294 292 292 290 290 287 287 288 287 286 286 285 286 284 284 282 279 279 280 279 280 280 280 281 280 280 280 279 279 279 279 278 279 279
300 303 305 305 305 305 306 306 307 306 306 306 308 308 311 311 311 311 310 310 309 305 302 304 306 308 312 314 313 313 313 313 314 314 316 319 315 315 313 310 308 306 303 303 303 301 298 296 295 295 294 294 293 294 292 290 289 289 287 286 286 284 284 282 284 283 280 280 279 279 279 279 280 280 280 280 280 280 280 280 279 279 280 280 279
297 299 300 301 302 302 304 305 305 305 305 305 306 307 308 307 308 308 310 309 304 300 300 302 304 303 309 312 313 313 312 312 312 312 313 314 316 314 313 312 310 308 304 304 303 301 300 297 296 295 295 294 294 294 293 292 291 291 289 288 286 283 283 282 283 281 280 283 281 279 279 279 278 280 281 280 280 279 279 279 279 279 279 279 278
296 298 299 300 300 303 303 304 304 304 303 305 305 306 306 306 308 308 308 308 305 303 301 300 299 299 304 306 309 312 312 312 311 311 312 313 313 312 313 312 310 306 304 304 303 302 300 298 297 296 295 295 294 293 293 293 291 290 290 290 288 286 285 283 281 282 283 281 281 281 280 280 280 279 280 281 280 279 279 278 278 279 278 278 278
Wind_Speed
4 4 3 4 7 8 11 11 13 12 12 12 12 12 12 13 14 15 15 15 16 16 16 15 15 15 14 14 15 14 14 13 15 15 17 17 16 20 19 20 19 18 18 18 20 20 20 19 18 19 19 20 20 19 19 19 20 20 20 19 19 20 20 20 21 21 19 18 22 22 21 21 23 23 24 24 23 22 19 20 17 14 14 18 25
7 5 3 3 6 9 11 10 13 12 12 12 12 12 12 13 14 14 15 15 15 16 15 15 15 15 15 14 14 14 13 12 14 15 17 17 17 21 20 19 19 18 18 20 19 20 19 18 18 18 19 20 19 20 19 20 21 21 21 20 20 20 19 20 19 19 20 19 20 21 22 22 21 22 23 24 24 22 19 21 20 13 11 22 23
6 5 3 3 5 8 12 11 13 13 12 13 13 12 12 12 13 13 14 14 14 14 15 15 15 14 14 15 14 14 13 13 16 16 17 17 18 20 20 19 19 18 18 19 19 19 18 18 17 17 19 20 20 20 20 20 20 21 21 21 20 18 18 18 17 16 17 18 19 20 18 20 21 21 22 21 22 24 20 21 20 18 15 24 22
7 4 3 4 5 7 10 11 12 12 12 12 12 11 12 12 13 13 14 14 14 14 14 14 15 15 14 14 14 13 12 13 15 15 16 17 18 20 19 19 19 18 19 20 19 19 18 17 17 19 19 20 21 21 20 20 20 21 21 21 20 20 18 17 16 15 14 14 14 9 7 9 13 20 20 20 22 22 19 21 22 23 24 22 24
8 3 3 2 3 6 10 11 12 13 12 12 11 11 11 12 12 13 13 13 14 14 14 14 14 14 14 14 14 14 12 13 15 16 16 16 17 19 19 19 19 18 19 19 19 19 19 19 19 20 20 20 20 21 20 20 21 21 20 21 19 18 17 16 16 15 14 13 11 7 4 7 9 19 20 21 20 18 20 22 22 23 23 25 25
8 4 2 2 3 4 9 11 13 13 12 12 12 11 11 12 12 12 13 12 13 13 14 14 14 14 14 14 14 12 14 13 13 15 16 17 17 18 20 19 19 19 19 20 19 18 18 19 19 20 20 19 20 20 20 21 21 21 20 18 18 17 17 16 16 15 14 12 10 6 6 6 7 12 22 21 22 21 23 24 23 23 24 25 25
8 5 3 3 3 4 7 11 13 13 13 13 12 12 12 12 12 12 12 13 13 13 13 13 13 13 13 13 12 13 15 15 15 16 17 17 17 19 19 18 18 18 19 18 18 18 18 18 19 19 19 19 19 19 19 19 19 19 18 18 17 17 16 16 15 14 13 8 6 6 6 7 9 9 23 22 23 24 24 24 24 24 24 24 23
6 5 4 3 3 4 7 10 13 13 13 13 12 12 12 12 12 12 11 12 12 13 13 13 12 12 13 12 12 13 13 15 16 16 17 17 18 19 18 18 18 18 19 18 18 18 17 18 17 17 18 18 19 19 18 19 19 19 18 17 17 17 16 16 15 13 12 7 6 6 7 8 9 9 22 23 24 24 24 24 24 24 25 24 18
7 6 4 3 3 7 8 9 12 13 13 12 12 12 12 12 12 11 11 11 12 12 13 13 12 12 12 12 12 13 14 15 16 16 16 17 19 19 18 17 18 19 19 18 18 17 17 16 18 17 18 17 18 18 19 19 18 18 18 17 17 17 16 15 14 12 7 7 7 8 9 9 9 10 21 25 26 24 22 20 22 25 25 22 23
7 6 5 3 4 7 8 9 13 13 13 12 12 12 12 11 12 11 11 11 12 12 12 12 12 12 12 12 12 12 14 15 15 16 16 17 18 18 18 17 17 18 18 17 17 17 16 16 17 18 18 18 18 18 19 19 18 18 18 17 17 17 16 15 13 9 7 7 8 8 10 12 9 10 21 25 25 26 24 22 17 17 18 24 26
7 6 5 4 4 7 8 9 10 11 12 12 12 12 12 11 11 11 11 11 11 12 12 12 12 12 12 12 12 12 13 15 16 16 17 17 18 18 17 16 17 17 17 17 16 16 16 16 17 17 18 18 19 18 19 19 18 18 18 18 17 17 16 14 10 7 8 8 8 8 12 16 9 10 23 25 26 26 23 24 23 23 25 26 26
9 6 5 3 6 8 9 9 9 11 11 12 12 12 12 11 11 12 11 11 11 11 12 12 12 12 12 12 12 12 13 12 14 15 16 17 17 16 16 15 15 16 17 17 16 16 16 16 16 18 18 17 18 18 18 19 19 19 18 18 17 16 16 16 8 7 7 8 8 8 8 10 10 15 23 23 27 25 24 24 24 25 26 25 27
7 6 5 4 4 7 8 9 10 11 11 12 13 13 13 12 12 12 11 11 11 11 12 12 12 12 12 12 12 12 12 11 13 15 15 15 15 16 16 15 15 16 17 16 15 15 15 16 17 18 18 18 18 18 18 18 18 17 17 18 17 15 15 12 7 7 7 7 6 8 9 9 9 21 22 27 26 27 26 26 26 25 26 27 27
9 7 5 4 3 7 8 9 9 10 10 12 13 13 13 13 13 12 12 12 11 12 12 12 12 12 12 12 12 12 12 11 11 12 11 13 14 15 16 15 15 16 17 16 16 15 16 16 17 17 18 18 18 18 18 18 18 17 16 16 15 15 11 9 7 7 7 8 7 7 7 7 9 23 25 25 26 25 25 25 26 26 26 27 28
9 7 6 5 4 4 8 9 9 9 9 10 11 11 13 13 13 13 12 12 12 13 13 12 12 12 12 12 12 12 13 12 12 13 12 13 13 14 14 14 14 16 16 16 15 16 17 18 18 18 19 18 19 18 17 18 18 16 16 15 14 11 10 6 6 6 6 6 6 9 8 7 20 24 25 26 26 26 27 26 27 27 26 26 26
8 8 6 6 5 4 4 7 9 9 9 10 10 10 11 11 11 13 13 13 13 13 13 13 13 12 12 12 12 12 13 13 13 14 13 13 14 14 15 15 14 16 16 15 15 16 18 19 19 18 18 18 17 18 17 17 17 16 15 14 12 11 10 7 6 6 6 6 6 5 8 10 24 24 24 26 25 26 26 27 27 27 27 26 26
8 7 7 7 6 5 5 5 6 10 8 9 9 10 10 10 11 12 12 12 13 13 13 13 13 13 13 12 11 11 11 13 14 14 13 13 15 15 15 15 15 16 17 15 15 16 17 18 18 18 18 17 17 17 17 16 16 15 14 13 12 11 10 8 6 5 6 5 4 5 8 9 21 24 26 26 26 26 26 26 25 25 25 25 25
7 8 8 7 6 5 5 4 5 5 5 8 9 10 11 11 11 11 11 11 12 12 12 11 12 11 11 11 10 10 10 12 12 13 13 12 13 13 14 15 14 14 16 15 14 16 17 18 18 17 17 17 17 17 17 16 16 15 13 13 12 10 10 8 6 5 6 5 6 7 8 17 25 25 25 26 25 26 26 25 24 24 24 24 24
6 7 7 7 6 6 5 5 4 4 5 5 4 8 12 11 11 11 11 11 11 11 11 10 10 10 11 11 11 11 10 11 10 10 10 10 10 10 11 13 14 14 16 15 14 16 17 17 17 17 17 17 17 16 16 16 15 14 14 12 11 10 11 7 5 5 5 5 5 7 10 21 23 24 25 25 25 25 24 24 23 23 23 23 23
5 6 7 6 6 6 5 5 5 5 4 4 5 5 9 11 11 11 11 11 11 11 10 11 10 11 11 12 12 10 10 9 11 9 10 10 9 7 10 11 14 14 15 14 15 16 17 17 17 17 17 17 17 16 16 16 15 15 13 13 11 11 7 5 5 5 5 5 5 7 13 19 24 26 27 25 25 25 24 23 22 23 23 24 23
4 6 6 6 6 7 6 5 5 5 5 4 4 5 7 10 9 10 11 11 11 11 11 11 10 10 10 10 10 7 6 6 7 6 8 6 8 8 9 11 13 14 14 14 15 16 17 16 17 17 17 17 16 16 14 15 15 15 14 12 11 8 6 6 5 5 5 5 6 8 16 20 24 27 27 25 25 24 23 23 22 22 22 22 23
6 6 6 7 7 6 8 7 5 6 5 5 4 4 5 7 6 6 6 8 9 10 8 7 7 6 9 7 6 6 6 5 5 6 5 5 7 9 9 10 10 12 13 14 15 16 16 17 16 16 16 14 13 8 8 11 14 14 12 11 8 6 6 6 6 5 5 6 7 11 19 21 23 25 26 24 23 22 21 21 21 22 22 21 21
8 7 6 8 7 6 7 7 6 6 6 5 5 5 6 5 5 6 5 6 7 7 6 7 5 6 5 5 5 5 5 5 5 5 5 8 8 10 10 9 10 12 12 15 15 16 16 16 16 15 14 12 8 6 6 6 7 10 10 8 6 6 6 7 6 5 5 5 6 14 18 22 23 24 24 23 23 22 22 22 21 21 21 22 22
10 9 9 6 7 7 8 7 7 7 7 6 5 6 6 6 5 6 6 5 5 5 5 6 6 5 6 5 5 5 5 5 7 10 8 6 7 9 11 12 12 12 12 9 12 14 16 15 15 13 8 6 6 6 6 6 6 6 7 6 6 6 7 6 5 5 5 5 6 14 18 21 23 24 25 24 23 22 21 20 20 21 21 21 21
9 7 6 8 9 8 8 8 7 7 7 6 7 6 6 5 5 5 6 6 5 5 5 5 5 5 5 5 5 5 5 5 5 5 5 5 5 5 5 5 5 6 8 7 6 7 7 7 7 7 6 6 7 6 5 6 5 6 6 6 6 6 6 6 5 5 5 5 7 13 16 20 22 24 23 22 23 21 20 20 20 20 21 21 22
6 8 9 9 9 9 9 7 8 8 8 7 8 8 7 6 6 6 7 6 6 5 5 5 5 6 5 6 6 6 5 5 5 5 5 5 5 5 5 5 5 5 5 6 6 6 6 6 6 6 5 5 6 6 5 5 5 5 6 6 6 6 6 5 5 5 5 5 7 12 15 18 22 23 22 23 23 21 21 20 19 20 19 19 19
8 10 8 8 9 9 9 8 8 8 9 7 7 7 7 6 6 6 8 7 6 6 5 5 5 6 6 6 8 6 6 5 6 6 6 5 5 5 5 5 5 5 4 6 6 5 6 6 6 6 5 6 6 6 6 5 5 5 5 6 6 6 6 5 5 5 5 5 6 14 15 17 21 21 21 20 19 19 19 18 18 18 18 18 18
6 9 8 8 8 11 10 10 9 9 8 8 8 7 7 7 7 7 7 7 7 7 6 6 6 6 6 6 6 7 7 6 6 6 6 5 5 4 4 5 5 5 4 5 7 5 6 6 6 5 6 5 6 6 6 5 5 5 6 6 6 6 6 5 5 5 5 5 4 8 10 14 18 20 21 18 17 18 17 17 18 17 18 17 17
9 9 8 9 10 10 11 11 10 10 8 8 8 8 7 7 7 7 7 8 8 7 7 7 7 6 6 6 6 7 6 6 7 6 5 6 5 5 5 5 5 5 5 5 6 7 6 6 6 6 5 6 6 5 5 5 5 5 5 5 7 7 6 5 5 5 5 5 5 7 13 14 16 17 17 17 17 15 15 16 16 16 17 16 17
12 10 9 9 9 9 12 13 12 11 10 9 8 8 8 8 8 8 7 8 8 7 8 7 6 7 7 6 6 7 8 8 7 5 7 6 5 5 5 5 5 5 5 6 5 6 7 6 6 6 6 6 6 5 5 6 5 4 5 7 7 5 5 5 5 6 5 6 6 6 9 11 13 16 15 14 14 15 16 15 15 15 15 15 16
9 11 11 10 9 10 11 12 12 11 10 9 9 9 8 9 8 8 7 8 8 7 7 7 6 7 7 7 6 6 7 7 7 7 5 6 6 6 5 5 5 5 5 6 5 6 5 6 6 7 6 6 6 4 6 6 6 5 4 7 5 3 5 4 5 5 6 5 5 5 9 12 14 14 15 16 15 15 16 16 17 16 13 15 15
12 14 12 9 9 12 12 12 12 11 11 11 9 10 10 9 9 8 8 7 8 8 8 7 7 7 7 7 6 6 6 7 8 7 7 7 6 6 6 6 6 5 5 6 6 5 6 5 5 5 5 6 6 5 4 7 6 5 5 7 5 4 4 4 5 5 5 5 5 6 6 7 12 10 10 14 15 16 15 15 14 15 15 12 13
11 11 10 9 12 11 11 12 12 11 12 12 10 9 9 9 9 9 8 7 8 8 8 8 8 7 8 9 8 7 6 8 7 8 8 7 6 6 6 5 6 5 5 6 7 6 6 6 6 5 6 6 7 6 4 6 7 5 5 5 5 5 3 3 4 5 6 5 5 5 6 6 5 11 15 12 8 10 12 13 13 14 13 14 13
9 7 7 12 10 8 9 8 11 12 13 12 10 8 9 9 8 8 9 8 8 8 9 8 8 8 8 9 9 8 7 7 9 8 8 8 6 6 7 6 5 5 6 7 7 6 6 7 6 6 5 6 7 6 6 6 6 5 4 4 6 4 3 3 4 5 5 6 5 6 5 5 6 6 7 12 12 7 11 12 12 13 12 11 12
7 7 12 12 10 10 9 8 10 11 11 11 11 10 9 8 8 8 9 10 8 8 8 9 8 8 8 8 9 9 9 9 9 9 8 8 8 7 6 6 6 6 6 6 8 6 6 7 7 7 6 5 5 5 4 5 7 5 4 2 4 4 4 3 3 5 5 5 6 5 5 5 6 6 6 5 8 13 13 8 12 11 12 12 12
12 11 9 8 11 10 10 10 10 12 12 12 10 9 9 9 8 8 9 11 9 9 8 9 8 8 8 8 10 10 10 9 9 9 8 9 9 8 7 6 7 6 6 6 7 8 7 6 5 7 9 6 6 5 5 5 5 6 4 3 3 3 4 3 4 4 4 5 5 5 5 5 5 5 5 5 5 7 11 12 8 9 12 10 11
11 10 11 10 10 11 11 12 13 13 12 11 10 8 8 8 10 9 9 9 9 9 8 8 9 9 9 9 10 10 10 10 10 10 9 9 8 9 8 9 8 8 7 7 7 7 8 8 6 5 5 8 7 7 5 5 6 6 4 5 5 4 4 3 3 3 3 6 4 4 5 5 4 5 5 5 5 5 8 11 11 15 9 11 9
10 12 11 13 14 12 12 13 12 11 11 11 10 9 8 8 7 8 9 9 10 9 9 9 10 11 10 9 10 10 10 11 11 10 8 10 10 10 9 10 9 8 8 8 7 7 7 9 9 5 6 7 7 8 7 5 4 5 5 5 5 5 4 3 2 2 3 4 4 4 4 4 4 4 4 4 4 5 4 7 11 12 13 13 8
9 11 10 10 8 9 10 11 11 10 10 9 9 7 7 7 6 7 8 9 8 8 9 8 8 8 11 13 12 11 12 12 13 12 9 8 7 9 10 11 10 9 9 8 8 9 8 8 10 8 5 3 6 6 8 7 6 5 5 5 5 5 3 3 3 3 3 3 3 3 3 4 4 3 4 4 4 4 4 5 5 5 7 13 13
7 7 10 8 10 8 8 9 10 10 8 7 7 7 6 7 8 5 7 8 8 6 7 9 7 7 7 10 11 11 11 11 12 13 12 10 9 9 10 11 10 10 10 10 10 11 13 12 11 12 10 6 5 7 8 9 8 8 6 6 5 5 4 3 3 3 2 2 2 2 4 3 4 3 3 3 3 3 4 4 4 5 4 8 13
6 8 9 10 11 12 11 12 11 9 10 9 9 9 9 7 6 9 9 7 7 7 7 6 8 8 8 8 9 10 12 12 12 12 11 11 11 10 10 10 10 11 11 12 12 10 9 10 9 7 13 11 7 6 6 8 11 6 5 5 5 4 3 3 3 2 1 1 1 3 2 3 3 3 2 2 3 3 3 3 3 4 4 5 6
10 10 12 15 13 11 12 12 8 9 11 12 11 10 10 11 10 9 7 6 6 7 8 7 7 6 7 9 9 8 9 13 13 13 12 12 11 10 10 12 11 11 11 11 11 10 10 9 10 8 5 11 10 11 10 10 3 8 8 3 3 2 2 2 1 1 0 0 0 1 2 2 3 2 2 3 3 3 3 2 3 3 4 5 4
9 11 11 8 8 10 11 9 10 11 11 10 9 11 8 6 7 6 8 4 3 3 4 3 4 5 5 6 8 9 9 8 9 11 12 11 11 12 13 12 11 10 9 9 11 12 12 13 14 14 10 4 5 9 12 9 7 5 4 7 2 2 1 1 1 1 1 1 0 1 1 2 2 1 1 2 3 3 2 1 2 3 3 3 3
6 7 7 11 10 10 9 9 10 10 9 10 10 8 6 4 3 3 4 5 4 2 2 0 3 4 7 6 5 7 10 10 10 9 8 9 10 9 8 12 14 13 12 12 13 14 13 11 11 11 12 11 7 10 11 9 9 14 7 3 3 4 0 9 7 2 2 2 3 3 2 3 2 1 1 3 3 2 2 1 3 3 3 2 1
8 9 10 11 10 12 11 11 10 10 9 8 8 6 6 4 4 5 5 4 2 3 4 5 5 4 4 6 8 4 5 9 9 11 11 11 10 10 10 10 11 13 12 12 12 15 16 15 16 14 16 15 11 8 11 9 11 11 11 7 2 1 8 2 8 3 2 3 3 3 4 3 4 4 4 3 2 2 3 3 3 2 2 2 0
9 10 8 8 6 6 6 7 6 6 8 8 8 8 8 9 7 6 5 4 6 6 9 10 7 7 8 4 4 7 7 6 8 11 11 11 12 12 12 11 10 9 9 10 10 10 12 14 15 14 15 12 13 12 13 10 9 12 8 0 2 6 8 6 10 7 1 4 3 4 4 5 4 5 4 3 4 5 4 5 3 4 3 3 3
9 4 4 5 5 6 7 8 8 7 7 7 8 8 7 7 10 11 10 11 11 9 7 6 8 7 5 7 6 6 7 8 7 8 10 12 11 11 12 13 13 12 11 11 12 14 15 16 14 13 15 12 11 12 15 13 4 11 8 5 2 1 8 13 8 6 3 4 4 6 6 6 5 5 6 6 6 5 5 4 5 4 4 3 3
2 4 5 5 7 8 8 8 6 6 6 7 8 9 10 9 8 8 9 10 11 10 7 7 6 6 7 8 7 6 7 7 7 7 7 9 11 13 14 14 14 13 13 13 15 14 12 11 13 15 13 13 16 16 15 12 15 14 13 11 4 0 8 0 5 13 8 10 9 3 4 6 5 7 7 8 8 8 7 5 5 5 5 4 5
4 5 6 5 5 5 6 5 6 6 6 8 9 8 9 10 10 9 9 8 7 5 5 6 6 5 8 7 7 7 6 6 5 5 5 9 9 9 9 10 11 13 13 13 13 13 17 17 15 13 13 11 12 12 13 15 15 13 12 11 6 4 6 3 5 1 6 7 5 10 8 1 3 7 8 7 7 7 7 7 7 6 6 5 5
3 3 4 4 5 5 6 7 7 6 6 7 8 8 7 7 8 8 11 9 6 4 4 6 6 5 8 8 8 7 6 5 5 5 5 5 8 11 12 14 15 15 13 14 13 12 12 15 18 18 16 16 13 13 16 14 15 13 13 12 10 5 4 4 4 6 1 2 7 12 10 13 12 12 8 9 9 7 6 5 5 5 5 6 5
2 4 4 4 4 5 5 6 6 5 6 7 8 9 8 7 10 10 11 10 8 6 6 5 4 4 7 7 7 7 6 7 5 6 6 6 6 7 10 12 10 8 10 13 14 13 13 12 12 13 13 15 13 14 12 11 11 12 12 10 13 14 14 13 12 10 8 5 3 5 9 12 14 6 9 8 6 6 6 5 6 6 6 6 6
Wind_Direction
215 187 214 219 157 137 132 132 121 114 109 103 98 96 92 88 86 84 83 82 81 79 77 77 78 80 81 82 83 86 88 87 90 83 83 86 85 83 83 85 85 85 88 89 88 86 84 82 80 79 81 80 77 76 77 79 78 78 80 80 78 76 72 68 67 64 61 68 68 68 70 70 71 72 70 69 66 64 62 63 62 61 61 65 65
170 186 194 190 169 138 137 135 123 118 114 107 101 98 94 89 87 86 86 85 85 83 82 81 80 82 83 84 85 87 88 89 93 91 88 89 89 88 87 85 85 85 87 87 83 82 79 77 78 79 85 83 79 79 80 80 81 80 79 79 80 79 76 73 70 71 72 70 67 68 70 69 67 69 69 69 69 67 65 66 65 64 65 66 65
140 160 181 176 164 138 141 143 128 124 118 113 107 102 99 95 91 91 88 87 86 85 83 83 86 86 86 86 88 90 89 89 78 83 91 91 87 88 89 87 87 89 88 87 86 82 79 78 77 77 86 87 81 80 80 81 83 83 83 81 77 71 66 63 61 60 65 69 70 69 67 70 71 73 72 72 71 69 68 68 68 68 69 69 68
147 154 160 169 155 138 139 141 132 124 120 114 110 106 102 99 96 94 93 90 88 88 88 87 85 86 87 88 89 88 85 88 83 84 90 93 91 91 89 88 91 91 91 90 86 80 79 80 80 83 92 90 84 80 80 83 84 85 84 84 80 74 65 60 56 54 51 61 65 48 68 70 70 75 77 76 74 71 69 69 70 71 72 71 70
151 139 159 154 147 133 139 139 133 127 123 118 113 108 103 100 98 95 95 94 93 91 89 87 88 89 92 93 91 93 94 86 87 89 92 90 92 93 91 92 92 96 95 92 86 83 82 82 82 81 85 91 89 83 81 86 88 86 85 81 76 67 62 58 55 53 52 49 47 51 51 78 88 82 80 79 77 74 69 68 67 67 66 68 71
155 142 157 139 144 138 143 140 133 131 128 124 117 114 109 105 101 99 97 97 97 94 92 91 92 94 95 96 95 93 82 76 82 91 91 90 92 93 93 94 94 95 95 92 86 84 84 86 87 88 87 90 92 89 86 86 86 85 80 70 64 61 56 52 51 47 45 44 43 51 54 60 76 86 86 84 79 73 74 74 74 72 71 70 72
148 156 153 150 137 148 151 142 136 134 131 126 123 120 117 114 109 106 104 102 100 99 98 99 97 97 98 98 97 94 86 85 85 87 89 91 91 92 92 95 99 100 99 94 90 87 86 87 88 91 94 93 91 92 90 87 84 80 79 75 63 61 58 54 50 49 45 42 46 41 47 55 61 59 76 79 80 77 77 77 75 73 71 69 70
142 158 157 151 147 168 164 145 141 138 135 131 128 125 124 118 113 108 108 106 103 101 100 101 101 101 101 100 96 93 91 87 83 84 87 89 91 90 92 99 102 102 99 96 91 89 88 87 90 93 96 97 96 93 91 86 82 77 74 69 66 62 57 54 49 47 45 45 37 39 49 58 71 78 81 79 77 74 73 73 74 72 70 69 65
156 159 154 154 168 175 168 149 146 143 140 134 132 130 127 123 117 115 113 109 106 106 105 104 103 104 103 99 97 95 90 89 91 95 96 95 94 94 95 100 103 102 99 93 89 88 89 89 90 95 92 95 98 96 92 88 84 80 75 71 68 63 60 57 52 46 43 49 57 62 62 65 72 80 82 81 76 73 70 67 66 71 74 73 72
162 158 159 157 171 183 162 154 150 145 143 138 135 133 130 125 122 120 116 110 107 107 107 105 105 105 104 97 96 102 98 92 93 91 91 93 94 97 98 101 103 103 101 96 91 90 91 90 88 91 95 90 92 95 93 89 83 78 75 72 70 67 62 57 53 47 53 54 59 64 74 76 75 83 84 80 79 77 74 72 73 72 72 72 70
161 161 155 163 176 180 163 157 149 146 145 141 139 137 135 132 127 121 116 111 110 109 108 107 105 105 105 100 97 98 98 98 96 95 96 97 93 92 97 100 103 103 100 97 92 94 92 93 92 91 93 92 89 89 90 88 84 78 74 74 70 69 67 59 51 53 53 55 56 59 73 76 72 79 86 88 84 79 77 76 76 74 71 71 69
164 163 160 162 177 177 168 156 152 149 146 146 144 141 140 137 131 125 120 116 116 114 109 109 109 107 108 104 102 102 102 100 98 96 93 94 96 97 97 99 103 104 103 97 94 94 96 98 99 97 94 95 93 92 90 87 83 78 75 75 72 70 69 68 55 57 58 60 63 65 64 68 79 85 83 83 79 77 76 74 72 72 69 68 68
161 161 160 163 172 182 170 158 154 152 153 153 151 145 145 142 137 131 127 123 122 117 113 110 109 110 109 106 102 103 107 114 105 100 98 96 99 99 100 102 106 107 105 100 94 93 98 101 103 102 98 96 96 93 94 88 83 77 78 79 77 72 74 58 53 58 61 60 63 65 71 71 76 85 83 77 78 75 72 70 69 69 68 64 64
163 164 162 167 166 180 169 159 157 154 159 159 153 149 149 147 143 136 131 129 127 123 119 114 111 110 110 107 104 103 106 108 112 109 110 107 105 101 103 107 113 112 104 98 90 92 96 101 102 102 100 97 98 95 92 86 82 77 71 69 70 74 57 55 48 59 65 68 66 64 68 82 88 82 78 78 77 75 71 70 68 66 65 63 62
163 165 164 162 168 173 167 161 156 159 163 159 152 152 154 151 145 139 135 134 133 130 124 120 118 117 116 113 111 111 110 109 108 105 104 109 108 110 110 112 118 113 109 99 90 91 94 97 101 101 99 96 93 90 84 82 80 75 71 65 63 55 54 59 56 56 63 58 64 78 77 77 83 80 79 78 77 76 74 72 71 71 70 68 66
161 162 162 166 167 166 161 166 160 162 168 157 151 155 154 149 145 141 139 139 138 133 127 125 124 123 121 119 117 117 115 113 112 112 113 115 117 118 114 115 120 116 111 100 90 91 94 96 100 99 93 88 86 84 82 78 76 72 67 63 56 52 53 61 62 61 61 63 69 76 84 83 82 81 80 80 79 78 77 75 74 73 73 72 71
162 161 167 169 167 163 162 166 167 165 161 154 154 154 151 148 145 143 142 142 140 137 133 131 130 128 127 124 117 114 114 115 112 112 112 112 114 114 116 119 122 118 105 95 90 92 94 94 94 92 90 88 86 83 79 75 72 69 66 61 58 50 51 56 63 61 66 65 60 64 80 81 83 83 82 81 80 79 77 76 76 75 73 72 73
166 166 173 170 170 167 166 167 165 163 156 153 158 154 152 152 149 143 142 142 143 139 136 135 134 128 117 110 110 112 114 115 114 114 113 111 113 115 116 120 121 119 102 97 96 95 94 94 93 92 91 89 86 83 78 74 69 64 61 58 56 47 53 52 64 61 65 65 71 82 88 89 86 84 82 81 80 79 77 75 73 73 73 73 72
169 178 173 172 175 169 170 164 166 162 155 155 157 156 155 153 148 145 143 142 140 136 136 132 123 120 113 106 100 93 91 95 97 99 99 100 102 108 116 120 122 120 106 101 102 98 96 95 91 91 90 87 84 80 78 73 68 64 61 57 50 51 50 47 47 55 62 59 72 95 96 95 91 88 85 82 79 79 80 80 79 77 76 73 72
175 182 180 183 175 173 168 166 168 163 157 157 155 153 156 152 149 147 145 140 137 135 129 123 120 112 108 105 102 97 92 92 94 93 94 94 98 104 117 122 122 119 103 106 105 103 100 97 94 89 87 84 79 75 73 73 70 65 60 57 54 50 44 39 42 50 63 70 74 92 97 99 98 94 88 84 82 80 77 75 77 78 77 76 74
173 189 186 185 183 178 169 174 173 163 157 155 152 151 158 150 148 146 141 139 135 130 123 116 111 109 107 106 101 98 98 96 91 97 93 96 104 110 119 125 125 114 108 106 100 99 101 95 90 88 84 80 74 68 63 68 68 66 61 55 53 48 36 41 44 52 58 62 78 94 97 95 91 90 89 88 86 84 83 82 79 77 76 78 79
170 179 193 189 184 187 173 177 168 166 159 159 157 150 153 150 143 143 139 135 129 124 122 122 118 115 111 104 103 104 103 100 100 100 99 98 97 100 105 113 116 109 109 107 102 99 95 95 92 89 86 80 71 69 63 61 61 65 60 56 55 46 36 36 43 45 57 69 89 98 96 93 93 94 90 86 85 85 85 85 85 87 89 86 82
190 187 185 190 190 182 182 181 177 167 164 162 159 153 152 147 147 142 134 131 134 130 129 126 127 125 115 109 108 109 108 103 104 108 107 104 103 105 111 117 111 102 104 103 99 96 95 94 90 86 83 76 70 68 67 68 63 61 62 58 56 46 46 39 36 39 51 74 94 100 99 97 94 91 92 90 88 87 86 87 86 82 80 82 82
192 191 183 186 187 190 184 182 179 171 168 165 156 156 159 153 154 148 140 137 136 135 135 135 134 132 127 120 115 114 108 107 106 104 102 99 98 82 79 78 76 77 83 85 86 89 89 85 86 83 75 72 77 67 73 67 63 66 68 64 62 52 50 40 36 33 43 63 94 100 99 99 98 97 96 95 94 93 92 91 89 88 86 84 83
192 175 181 188 189 187 185 186 181 175 174 170 162 145 161 157 158 151 148 148 140 138 141 140 138 135 130 126 120 113 111 110 109 102 101 102 93 94 86 83 86 87 87 87 87 82 79 83 76 72 73 79 77 63 72 76 61 67 70 68 68 60 54 42 35 38 38 67 92 100 103 103 101 100 98 96 95 93 92 93 94 94 92 89 84
171 186 191 188 188 188 188 183 182 181 180 172 161 167 167 167 165 157 155 155 151 149 147 149 142 139 136 131 122 116 116 116 118 117 115 113 107 105 103 107 100 102 103 102 94 96 90 91 89 83 74 76 78 74 57 78 79 68 75 69 69 63 58 46 37 34 25 42 82 91 98 102 103 103 101 100 100 98 98 96 93 93 93 94 92
191 199 187 189 185 187 188 185 187 181 184 172 171 171 177 172 169 163 161 164 158 156 161 159 155 146 144 145 137 135 131 134 130 133 131 126 120 119 119 116 118 115 115 114 104 98 102 97 93 91 89 87 81 78 72 67 72 78 76 78 72 65 58 50 38 32 22 26 81 100 104 105 106 106 105 104 101 100 101 100 97 93 92 90 89
202 201 195 190 186 189 185 186 189 184 183 176 176 180 179 173 175 164 170 165 162 168 168 165 156 154 153 157 148 146 146 144 146 143 145 133 133 127 124 118 118 118 116 114 115 108 105 103 104 99 95 85 89 83 82 72 69 68 79 77 82 73 61 53 44 36 28 27 40 93 111 113 106 106 106 106 106 105 103 101 100 96 94 94 95
211 205 198 196 195 189 184 188 187 187 185 179 181 184 182 175 175 176 178 167 175 173 170 161 164 159 161 159 157 148 149 147 152 155 145 142 134 132 130 129 123 127 123 114 122 123 115 118 113 110 103 101 93 81 84 70 66 61 77 79 74 71 69 60 49 43 38 27 12 65 87 95 106 106 108 107 104 99 102 103 104 104 100 97 93
211 206 200 204 196 191 190 191 189 187 185 183 185 187 187 182 181 183 181 169 181 173 165 171 169 163 169 172 170 159 158 156 153 154 152 148 142 133 131 137 134 139 131 127 133 125 128 121 117 115 112 108 104 100 90 82 64 60 72 81 69 58 65 66 60 51 41 36 29 20 69 105 103 110 104 103 104 108 107 103 102 103 104 101 95
203 213 209 204 195 193 200 191 193 187 186 189 186 189 189 188 183 183 183 180 178 173 173 174 172 172 174 171 171 168 154 153 152 157 156 148 146 144 146 142 137 147 137 128 127 127 124 125 130 128 123 115 104 105 107 94 80 60 47 78 72 50 66 58 68 60 57 39 36 39 37 61 99 109 114 111 112 110 112 115 114 109 106 104 102
201 213 210 198 195 201 200 194 193 187 189 193 188 189 192 188 181 181 190 184 178 181 177 177 180 175 171 172 172 168 162 156 155 159 158 154 153 152 153 151 155 150 142 134 128 124 122 116 110 109 108 107 104 92 90 104 86 69 60 71 60 38 54 60 74 73 65 52 42 44 43 43 42 61 96 116 119 117 115 114 113 111 107 99 101
217 213 205 198 204 201 201 199 193 192 191 194 193 193 190 186 181 184 187 185 185 183 185 182 182 179 173 177 174 169 169 162 164 164 160 158 155 154 158 161 157 153 144 136 127 121 115 110 97 101 101 101 101 91 81 91 96 79 72 66 67 46 16 49 74 73 71 59 52 45 47 37 34 43 37 31 89 110 115 116 113 114 107 109 108
212 206 195 208 203 201 203 198 197 194 198 194 193 194 191 188 180 180 182 189 191 189 190 186 182 183 177 180 176 174 174 170 164 170 162 155 159 161 162 162 161 154 144 140 134 137 129 125 126 115 115 119 118 118 117 102 93 91 62 72 71 57 21 41 55 70 73 67 55 55 43 36 39 39 32 30 24 73 121 126 119 110 116 112 108
205 202 204 205 195 201 196 204 197 199 196 199 193 194 189 185 182 180 182 188 196 198 188 189 184 185 180 183 181 177 180 173 172 167 169 162 161 163 171 168 159 154 150 153 141 139 136 139 142 128 123 113 113 109 107 112 116 98 80 54 67 67 45 48 38 57 60 67 63 58 44 43 42 43 43 28 27 31 23 105 118 119 124 122 119
209 207 205 192 200 200 196 203 198 203 200 201 197 194 192 186 183 185 183 185 195 201 193 189 186 183 185 186 187 180 182 176 174 172 169 171 167 170 171 162 163 155 153 152 146 146 144 139 150 144 135 132 124 109 98 102 92 85 62 58 66 57 65 42 49 58 51 68 66 61 53 51 44 50 47 36 33 18 28 32 77 127 132 129 127
208 201 199 193 200 199 197 201 201 203 201 202 200 195 193 197 187 187 188 186 193 201 198 190 188 189 187 188 189 183 186 179 178 178 174 175 175 167 166 167 163 161 159 159 156 155 150 147 149 155 142 140 135 123 110 109 104 90 68 64 38 52 54 22 39 57 62 74 73 64 65 53 45 49 42 43 28 17 20 28 43 35 36 130 122
207 205 200 195 199 192 196 201 201 200 200 199 200 196 198 200 202 195 192 196 199 198 198 197 197 187 185 192 186 187 190 181 181 181 183 181 176 170 164 166 168 164 162 164 165 157 156 155 149 147 144 142 141 140 130 108 102 102 81 59 47 52 37 29 36 40 72 90 74 74 71 60 58 46 43 43 29 23 21 17 29 33 28 32 64
208 205 199 202 196 195 195 201 199 195 198 196 196 193 192 206 209 202 200 199 200 198 191 197 202 197 190 185 187 189 191 188 182 182 184 181 182 170 164 171 169 167 163 166 164 165 162 165 155 140 127 118 139 135 131 123 102 81 74 52 49 46 43 34 30 39 50 82 100 90 76 58 66 43 52 38 31 32 29 36 33 38 18 27 35
208 197 200 196 197 195 194 197 199 193 189 189 181 185 186 198 206 214 213 208 203 200 201 195 192 201 202 190 188 192 193 191 187 184 183 177 178 176 172 172 175 170 169 172 174 178 174 165 164 151 139 112 100 127 133 121 96 83 64 55 39 46 41 33 35 25 25 46 82 85 87 73 70 60 50 38 43 37 43 36 46 36 30 25 29
202 194 194 199 197 195 185 198 194 185 181 184 188 188 192 198 211 207 213 204 206 204 207 209 197 197 197 197 193 198 192 194 190 186 188 179 179 174 173 178 181 180 177 183 184 181 174 163 149 151 147 139 138 148 149 135 122 79 65 60 48 32 44 48 27 13 9 353 28 89 88 90 76 80 46 51 56 51 47 40 47 43 44 45 18
209 193 197 201 199 193 193 196 179 186 192 191 189 192 196 198 194 206 204 199 199 200 209 209 210 195 195 199 198 205 204 197 193 189 188 183 177 173 177 181 182 189 192 180 172 168 167 161 151 143 175 157 155 167 166 136 146 159 146 130 26 10 36 45 31 347 333 339 359 82 103 118 120 100 62 74 63 70 51 48 55 55 57 49 30
201 197 204 190 191 194 199 190 186 187 195 192 186 198 197 193 190 191 191 202 217 206 217 208 196 198 199 205 203 201 200 205 202 192 189 187 186 178 179 178 189 188 181 174 169 173 179 174 170 163 159 169 146 171 176 187 132 109 92 94 180 121 269 331 294 262 265 258 320 148 157 147 156 140 121 97 105 94 80 67 79 86 67 52 44
194 198 192 195 194 197 194 189 188 191 191 194 194 196 176 147 124 139 166 161 181 151 142 104 207 211 212 199 216 206 200 198 190 193 193 188 181 186 192 184 182 184 189 183 180 182 179 177 177 170 158 153 170 185 196 184 155 137 162 190 162 127 354 236 200 228 186 228 205 206 197 192 178 169 117 165 166 143 154 126 129 117 91 74 47
203 199 195 195 193 196 194 189 185 189 192 187 185 156 124 105 91 65 73 81 54 147 190 220 212 216 222 210 210 212 216 198 192 191 194 192 190 184 183 196 196 190 186 189 191 189 179 180 182 171 173 168 172 179 197 198 189 190 142 134 106 262 224 151 135 255 170 223 247 224 206 187 190 192 192 205 187 192 174 168 160 135 139 133 192
208 209 199 197 186 187 180 182 179 181 185 182 173 161 168 164 156 154 162 178 198 192 205 207 200 206 213 207 214 208 212 217 202 196 197 196 191 186 185 184 194 193 192 187 185 192 187 183 187 181 181 184 170 169 187 211 205 212 227 345 138 175 171 173 146 221 116 224 222 213 218 209 193 194 202 199 194 196 195 185 176 177 174 181 200
219 172 173 183 179 175 180 180 182 183 177 172 168 167 171 178 185 191 196 199 208 218 212 205 201 203 193 200 211 214 217 217 223 210 198 194 192 188 186 188 190 193 193 189 194 196 193 191 185 188 187 170 161 178 188 191 187 244 235 240 70 247 149 141 193 75 202 237 223 208 233 219 208 200 201 209 200 195 203 192 190 186 188 192 196
159 152 172 172 181 180 176 182 178 175 176 166 173 180 181 185 190 202 203 209 211 216 194 205 200 185 200 208 204 214 214 219 222 218 212 205 202 200 196 190 190 192 189 199 200 199 194 193 193 195 187 182 176 178 184 180 186 210 213 221 210 104 195 331 164 175 160 173 215 251 265 213 219 219 207 203 199 198 193 197 194 193 195 202 200
166 176 183 181 173 164 167 164 173 171 173 173 177 189 189 187 193 196 210 220 214 212 181 188 197 199 210 212 213 215 216 220 218 219 221 207 197 197 194 199 198 197 195 205 210 202 194 186 186 192 194 194 193 189 176 188 197 205 190 221 196 178 203 259 192 146 148 165 206 192 199 161 247 241 223 208 206 202 197 193 191 188 195 200 201
183 161 147 145 156 155 163 170 181 175 173 177 182 188 192 184 193 202 211 216 206 194 166 193 203 198 218 218 220 220 220 219 219 221 220 236 215 198 197 202 202 198 196 203 205 207 207 202 195 193 188 188 195 192 192 192 197 200 199 199 183 146 183 228 214 189 23 200 175 193 193 183 200 224 198 208 205 202 203 194 189 192 202 203 200
145 147 152 156 157 161 166 177 187 173 172 180 181 191 192 192 201 203 209 213 204 195 199 216 203 211 223 223 221 225 218 222 217 220 223 216 214 216 207 199 206 222 210 194 200 203 204 207 205 192 192 197 199 198 202 204 200 201 199 195 199 189 190 185 189 192 183 160 122 203 194 201 208 186 211 196 193 202 199 191 194 201 201 204 204